K7OLI-13 Weather Reports


Display with metric or nautical units.
time (UTC)temp
F
wind
direction
speed
MPH
gust
MPH
rain 1hr
in
rain 24hr
in
rain mn
in
humidity
%
barometer
mb
20260504220021 72 121 6.0 10.0 0.00 0.00 0.00 60
20260504215051 71 140 7.0 9.0 0.00 0.00 0.00 61
20260504214021 71 162 6.0 8.0 0.00 0.00 0.00 61
20260504213026 71 162 6.0 9.0 0.00 0.00 0.00 63
20260504212034 70 103 7.0 11.0 0.00 0.00 0.00 63
20260504211023 70 147 5.0 8.0 0.00 0.00 0.00 63
20260504210050 70 117 6.0 9.0 0.00 0.00 0.00 63
20260504205020 69 115 6.0 10.0 0.00 0.00 0.00 63
20260504204022 69 152 6.0 9.0 0.00 0.00 0.00 65
20260504203055 68 170 5.0 8.0 0.00 0.00 0.00 65
20260504202043 68 136 5.0 9.0 0.00 0.00 0.00 66
20260504201032 67 159 6.0 8.0 0.00 0.00 0.00 67
20260504200021 67 112 5.0 8.0 0.00 0.00 0.00 68
20260504195030 66 146 6.0 7.0 0.00 0.00 0.00 69
20260504194023 66 108 7.0 10.0 0.00 0.00 0.00 70
20260504193027 66 124 6.0 9.0 0.00 0.00 0.00 69
20260504192055 65 152 6.0 8.0 0.00 0.00 0.00 71
20260504191023 64 128 7.0 9.0 0.00 0.00 0.00 71
20260504190031 64 123 7.0 10.0 0.00 0.00 0.00 73
20260504185034 63 136 5.0 8.0 0.00 0.00 0.00 75
20260504184024 63 173 5.0 7.0 0.00 0.00 0.00 74
20260504183037 62 154 6.0 9.0 0.00 0.00 0.00 76
20260504182027 62 152 5.0 8.0 0.00 0.00 0.00 76
20260504181036 61 136 7.0 9.0 0.00 0.00 0.00 77
20260504180023 61 133 8.0 12.0 0.00 0.00 0.00 77
20260504175031 61 148 6.0 9.0 0.00 0.00 0.00 77
20260504174020 60 125 6.0 9.0 0.00 0.00 0.00 78
20260504173048 60 111 6.0 8.0 0.00 0.00 0.00 78
20260504172036 60 135 7.0 10.0 0.00 0.00 0.00 80
20260504171108 60 140 7.0 10.0 0.00 0.00 0.00 79
20260504004024 91 240 7.0 8.0 0.00 0.00 0.00 32 1003.3
20260504003032 91 258 6.0 10.0 0.00 0.00 0.00 31 1003.3
20260504002028 92 263 6.0 9.0 0.00 0.00 0.00 30 1003.3
20260504001049 91 311 5.0 8.0 0.00 0.00 0.00 29 1004.1
20260504000037 92 277 4.0 7.0 0.00 0.00 0.00 31 1004.3
20260503235026 91 308 4.0 6.0 0.00 0.00 0.00 30 1003.3
20260503234034 91 278 4.0 6.0 0.00 0.00 0.00 30 1004.1
20260503233023 92 237 4.0 7.0 0.00 0.00 0.00 30 1004.3
20260503232144 92 287 5.0 8.0 0.00 0.00 0.00 30 1004.3
20260503231021 91 257 4.0 8.0 0.00 0.00 0.00 31 1004.3
20260503230028 91 267 5.0 9.0 0.00 0.00 0.00 31 1004.3
20260503225037 91 264 4.0 6.0 0.00 0.00 0.00 34 1004.3
20260503224025 90 282 4.0 7.0 0.00 0.00 0.00 33 1005.1
20260503223034 92 214 5.0 7.0 0.00 0.00 0.00 35 1005.3
20260503222025 90 282 3.0 6.0 0.00 0.00 0.00 37 1005.3
20260503221031 90 274 5.0 6.0 0.00 0.00 0.00 37 1005.3